EW2099 Weather Reports


Display with metric or nautical units.
time (UTC)temp
F
wind
direction
speed
MPH
gust
MPH
rain 1hr
in
rain 24hr
in
rain mn
in
humidity
%
barometer
mb
20260506033007 50 28 4.0 16.0 0.00 0.00 0.00 64 1009.8
20260506031505 50 18 6.0 11.0 0.00 0.00 0.00 63 1009.8
20260506030002 50 75 8.0 16.0 0.00 0.00 0.00 64 1009.9
20260506024501 50 11 7.0 16.0 0.00 0.00 0.00 64 1009.9
20260506023109 50 15 4.0 14.0 0.00 0.00 0.00 64 1009.9
20260506021617 50 30 3.0 17.0 0.00 0.00 0.00 65 1010.0
20260506020056 50 27 5.0 15.0 0.00 0.00 0.00 65 1010.0
20260506014555 50 72 6.0 18.0 0.00 0.00 0.00 64 1010.0
20260506013106 50 46 7.0 13.0 0.00 0.00 0.00 65 1010.0
20260506011612 50 63 8.0 17.0 0.00 0.00 0.00 64 1010.2
20260506010055 51 72 5.0 14.0 0.00 0.00 0.00 65 1010.2
20260506004547 51 23 6.0 13.0 0.00 0.00 0.00 65 1010.3
20260506003045 51 51 6.0 12.0 0.00 0.00 0.00 65 1010.4
20260506001546 51 32 6.0 13.0 0.00 0.00 0.00 65 1010.4
20260506000044 51 41 5.0 14.0 0.00 0.00 0.00 63 1010.5
20260505234538 51 51 5.0 17.0 0.00 0.00 0.00 63 1010.7
20260505233037 51 39 4.0 10.0 0.00 0.00 0.00 63 1010.7
20260505231547 51 48 5.0 11.0 0.00 0.00 0.00 63 1010.6
20260505230031 51 45 4.0 12.0 0.00 0.00 0.00 66 1010.7
20260505224530 51 84 6.0 13.0 0.00 0.00 0.00 66 1010.8
20260505223028 51 42 6.0 14.0 0.00 0.00 0.00 66 1010.9
20260505221529 51 51 7.0 12.0 0.00 0.00 0.00 66 1010.8
20260505220024 51 360 4.0 14.0 0.00 0.00 0.00 65 1010.9
20260505214524 51 6 6.0 17.0 0.00 0.00 0.00 66 1010.9
20260505213033 51 41 4.0 15.0 0.00 0.00 0.00 66 1010.9
20260505211521 51 63 6.0 13.0 0.00 0.00 0.00 66 1010.9
20260505210020 51 35 7.0 15.0 0.00 0.00 0.00 66 1011.0
20260505204518 51 49 5.0 18.0 0.00 0.00 0.00 66 1010.8
20260505203027 51 57 6.0 13.0 0.00 0.00 0.00 66 1010.8
20260505201527 52 33 7.0 18.0 0.00 0.00 0.00 66 1010.7
20260505200014 52 32 6.0 17.0 0.00 0.00 0.00 66 1010.7
20260505194512 52 57 6.0 14.0 0.00 0.00 0.00 65 1010.6
20260505193011 52 73 8.0 18.0 0.00 0.00 0.00 65 1010.5
20260505191513 52 79 7.0 14.0 0.00 0.00 0.00 66 1010.6
20260505190012 52 27 8.0 18.0 0.00 0.00 0.00 65 1010.6
20260505184508 52 40 8.0 15.0 0.00 0.00 0.00 65 1010.4
20260505183012 52 4 9.0 18.0 0.00 0.00 0.00 64 1010.3
20260505181503 52 23 7.0 16.0 0.00 0.00 0.00 64 1010.3
20260505180002 53 4 8.0 17.0 0.00 0.00 0.00 64 1010.2
20260505174505 53 34 8.0 15.0 0.00 0.00 0.00 63 1010.2
20260505173001 53 60 7.0 16.0 0.00 0.00 0.00 64 1010.2
20260505171559 53 60 10.0 18.0 0.00 0.00 0.00 65 1010.2
20260505170110 53 34 5.0 16.0 0.00 0.00 0.00 64 1010.3
20260505164556 53 58 7.0 19.0 0.00 0.00 0.00 63 1010.4
20260505163056 54 53 5.0 14.0 0.00 0.00 0.00 63 1010.3
20260505161615 54 37 7.0 16.0 0.00 0.00 0.00 63 1010.4
20260505153101 54 36 6.0 14.0 0.00 0.00 0.00 63 1010.5
20260505151601 55 26 7.0 17.0 0.00 0.00 0.00 62 1010.7
20260505124542 54 16 9.0 19.0 0.00 0.00 0.00 62 1011.2
20260505123040 55 89 8.0 15.0 0.00 0.00 0.00 61 1011.2
20260505121546 55 75 8.0 17.0 0.00 0.00 0.00 60 1011.2
20260505120043 56 62 8.0 17.0 0.00 0.00 0.00 60 1011.2
20260505114540 55 46 6.0 16.0 0.00 0.00 0.00 60 1011.2
20260505113041 55 41 9.0 17.0 0.00 0.00 0.00 60 1011.2
20260505111541 56 24 9.0 17.0 0.00 0.00 0.00 58 1011.4
20260505101534 54 27 12.0 18.0 0.00 0.00 0.00 60 1011.7
20260505100031 55 63 8.0 18.0 0.00 0.00 0.00 60 1011.7
20260505094529 55 64 8.0 16.0 0.00 0.00 0.00 60 1011.8
20260505093034 54 357 8.0 17.0 0.00 0.00 0.00 60 1011.8
20260505091530 55 341 6.0 15.0 0.00 0.00 0.00 60 1011.8
20260505090026 55 336 8.0 14.0 0.00 0.00 0.00 60 1011.7
20260505084525 55 51 5.0 14.0 0.00 0.00 0.00 60 1011.8
20260505083021 54 346 7.0 15.0 0.00 0.00 0.00 62 1011.9
20260505081524 53 23 7.0 12.0 0.00 0.00 0.00 63 1012.1
20260505080018 53 37 4.0 13.0 0.00 0.00 0.00 63 1012.1
20260505074517 53 40 7.0 14.0 0.00 0.00 0.00 63 1012.0
20260505073016 53 23 5.0 13.0 0.00 0.00 0.00 63 1012.0
20260505071514 53 49 4.0 14.0 0.00 0.00 0.00 63 1011.8
20260505070013 53 28 7.0 15.0 0.00 0.00 0.00 63 1011.8
20260505064512 52 39 7.0 15.0 0.00 0.00 0.00 63 1011.7
20260505063012 52 64 5.0 14.0 0.00 0.00 0.00 65 1011.8
20260505061507 51 56 4.0 17.0 0.00 0.00 0.00 66 1012.0
20260505060014 51 77 5.0 13.0 0.00 0.00 0.00 66 1012.0
20260505054503 51 39 5.0 10.0 0.00 0.00 0.00 66 1012.2
20260505053002 51 54 4.0 10.0 0.00 0.00 0.00 67 1012.3
20260505051501 51 51 6.0 12.0 0.00 0.00 0.00 67 1012.3
20260505041555 51 32 4.0 11.0 0.00 0.00 0.00 68 1012.5
20260505040054 51 63 3.0 10.0 0.00 0.00 0.00 68 1012.5
20260505034553 51 27 1.0 8.0 0.00 0.00 0.00 69 1012.4